Location: Broekland
(52.3610°N, 6.2005°E)
Time: 00:26:00
(UTC+00:00)

Cosmos 1066 Rocket - Pass Details

Date: 19 May 2025
Orbit: 798 x 892 km, 81.2° (Epoch: 22 June)

Event Time Altitude Azimuth Distance (km) Brightness Sun altitude
Exits shadow 23:04:58 29° 163° (SSE) 1,525 5.0 -17.4°
Maximum altitude 23:07:46 58° 96° (E) 998 4.5 -17.5°
Drops below altitude 10° 23:13:25 10° 19° (NNE) 2,541 7.7 -17.5°
Sets 23:15:56 0° 16° (NNE) 3,494 8.8 -17.6°
